Other Surface Observations
Issued by NWS Tucson, AZ

Home | Current Version | Previous Version | Text Only | Print | Product List | Glossary On
Versions: 1 2 3 4 5 6 7 8 9 10 11 12 13 14 15 16 17 18 19 20 21 22 23 24 25 26 27 28 29 30 31 32 33 34 35 36 37 38 39 40 41 42 43 44 45 46 47 48 49 50
275
SXUS55 KTWC 221716
OSOTWC

WEATHER ROUNDUP FOR SOUTHEAST ARIZONA
NATIONAL WEATHER SERVICE TUCSON AZ
1015 AM MST FRI MAY 22 2015

AZZ504>506-514-221815-
LOCATION       SKY/WX    TMP DP  RH WIND       PRES   REMARKS
TUCSON         SUNNY     75  23  14 S14G22    29.97F
DAVIS-MONTHAN  SUNNY     74  24  15 S12G22    29.95F
CHILDRENS PARK N/A       69  25  19 SE8               PIMA CO DEQ
ALVERNON/22ND  N/A      N/A N/A N/A N/A               PIMA CO DEQ
CHERRY/GLENN   N/A      N/A N/A N/A N/A               PIMA CO DEQ
TANGERINE      N/A       69 N/A N/A S11               PIMA CO DEQ
CONTL RANCH    N/A       73  27  18 S6                PIMA CO DEQ
GRANT/1ST      N/A       71  25  18 SE5               PIMA CO DEQ
CRAYCROFT/22ND N/A      N/A N/A N/A N/A               PIMA CO DEQ
GOLFLINKS/KOLB N/A      N/A N/A N/A N/A               PIMA CO DEQ
AJO/12TH       N/A       69  27  21 S11               PIMA CO DEQ
SAGUARO EAST   N/A      N/A N/A N/A N/A               PIMA CO DEQ
FAIRGROUNDS    N/A       68 N/A N/A N3                PIMA CO DEQ
SAGUARO        N/A       75  29  18 SE3               *SABINO CYN
SAN CARLOS     N/A       72  27  19 SE3               *SAN CARLOS
GREEN VALLEY   N/A       69  22  17 S13               PIMA CO DEQ
HORSE CAMP CYN N/A       66  27  23 SW3               *ARAVAIPA CYN
RINCON MTNS    N/A        0   0   7 S2G10             *NR MANNING CAMP
$$

AZZ509>511-221815-
LOCATION       SKY/WX    TMP DP  RH WIND       PRES   REMARKS
SAFFORD        SUNNY     75  23  14 SE9G23    29.94F
STRAY HORSE    N/A       55  26  32 S6G14             *
TRAIL CABIN    N/A       62  24  23 E10G17            *N OF GRANVILLE
BLACK HILLS    N/A       74  29  19 SE6G10            *N OF FT THOMAS
DRY LAKE       N/A       57  27  31 S11G18            *NATANES MTNS
NOON CREEK     N/A       68  24  19 SW10G17           *PINALENO MTNS
COLUMBINE      N/A       42  10  27 SE7G16            *PINALENO MTNS
GUTHRIE        N/A       63  24  22 S7G13             *SW OF GUTHRIE
$$

AZZ502-503-513-221815-
LOCATION       SKY/WX    TMP DP  RH WIND       PRES   REMARKS
NOGALES        SUNNY     71  26  18 S16G23    30.01F
SELLS          N/A       72  31  22 S14G21            *
SASABE         N/A       68  29  23 S13G22            *ALTAR VLY
HOPKINS        N/A       56  21  25 SE9G19            *SANTA RITA MTNS
CARR CYN       N/A       66  14  13 W8G24             *W OF HEREFORD
$$

AZZ507-508-512-221815-
LOCATION       SKY/WX    TMP DP  RH WIND       PRES   REMARKS
SIERRA VISTA   SUNNY     70  14  11 SW12G20   30.04S
DOUGLAS        SUNNY     74  17  11 S22G29    30.02F
EMPIRE MTNS    N/A       67  18  15 SW17G28           *LAS CIENEGAS NCA
MULESHOE RANCH N/A       66  25  21 S8G15             *PRESERVE
HEADQUARTERS   N/A       67  13  12 SW6G22            *CHIRICAHUA MTNS
$$

.............................NOTES.............................
THIS IS AN AUTOMATED COLLECTIVE WITH MINIMAL QUALITY CONTROL.
PIMA CO DEQ SITES HAVE NONSTANDARD WIND SENSOR HEIGHTS.
PIMA CO DEQ SITES DO NOT REPORT WIND GUSTS.
* INDICATES WIND SENSORS LOCATED AT 20 FEET INSTEAD OF 33 FEET.
..............................KEY..............................
SKY/WX - SKY CONDITION/WEATHER
TMP    - TEMPERATURE IN FAHRENHEIT
DP     - DEWPOINT IN FAHRENHEIT
RH     - RELATIVE HUMIDITY IN PERCENT
WIND   - DIRECTION AND SPEED IN MILES PER HOUR (MPH)
VRB    - VARIABLE WIND DIRECTION
PRES   - MEAN SEA LEVEL PRESSURE IN INCHES OF MERCURY
         F - FALLING PRESSURE   R - RISING PRESSURE
         S - STEADY PRESSURE
VSB    - VISIBILITY IN MILES
HX     - HEAT INDEX IN FAHRENHEIT
WCI    - WIND CHILL INDEX IN FAHRENHEIT
N/A    - NOT AVAILABLE
AFB    - AIR FORCE BASE
         DAVIS-MONTHAN IS DAVIS-MONTHAN AIR FORCE BASE
CYN    - CANYON
MTNS   - MOUNTAINS
NCA    - NATIONAL CONSERVATION AREA
NR     - NEAR
VLY    - VALLEY
CONTL  - CONTINENTAL
PIMA CO DEQ - PIMA COUNTY DEPT OF ENVIRONMENTAL QUALITY



USA.gov is the U.S. government's official web portal to all federal, state and local government web resources and services.